18:02
Airports
History
Links
Donate
Help keep this website running!
PayPal
Bitcoin
This page is community maintained. The information is intended for PC simulator navigation or reference.
Always use approved charts for navigation.
U86
Camas CountyUpdated 28-Jul-2013
Camas County (U86)
Fairfield, Idaho, United States (83327)
4
Lat/Lng:43° 20' 30.7" N / 114° 47' 53.8" W
43.341861 / -114.798278
Elevation:5058'ft / 1542mMSL
Declination:E017°
ID / ICAO:U86
FAA:U86
Runways:1
Longest:(07-25) 901.2m / 2,957ft Dirt
Distance To
Airport ID:
Nearby VORs <50NM
Nearby NDBs
Nearby WeatherUpdated 08-18-17 17:47 GMT
Nearby weather at KSUN, Friedman Memorial located 27.6 nautical miles from U86
Altimeter: 30.23
Visibility: 10.0 statute miles
Wind: 9 knots (120°)
Temp: 23°c 73°f
Humidity: 38.2%

METAR: KSUN 181747Z 12009KT 10SM SKC 23/08 A3023

(Powered by phpweather)
Runway 07 / 25
Dimensions:901.2 x 12.2m 2957' x 40'ft
Surface:Dirt
Runway 07 [A]Runway 25 [B]
Heading:069°MH  086°TH249°MH   266°TH
Lat:
Lng:
43° 20' 13.88"N
114° 48' 8.22"W
43° 20' 15.4"N
114° 47' 28.22"W
User Notes and Comments
Google Map
Nearby Airports
4 Tracy Ranch 14.7 NM
U95 WSW 255°
4 Magic Reservoir 20.6 NM
U93 E 101°
(R) Sluder Airstrip 26.7 NM
ID16 E 80°
4 Pine 27.1 NM
1U9 WNW 288°
(C) Friedman Memorial 27.6 NM
KSUN (WX) ENE 66°
(U) Gooding Muni 29.4 NM
KGNG S 176°
4 Atlanta 36.7 NM
55H NNW 332°
VFR Chart
Flight Planning at SkyVector.com